When you browse on this site, cookies collect data to enhance your experience and personalize the content and advertising you see.
Visit our Privacy Policy to learn more. By continuing to use the site, you agree to this use of cookies and data.
  • In United Kingdom
  • List of Countries
  • For 7 days
  • Water Temperature
  • Weather Map
  • Weather Widgets
  • user-avatar
    Login

    Hourly Weather Wien

    Today, 17 September, Tuesday

    Time Temperature Precipitation Wind Pressure Humidity
    00:00 +21°C° 0 mm 1 mps 744 mmHg 62%
    01:00 +20°C° 0 mm 2 mps 743 mmHg 63%
    02:00 +20°C° 0 mm 2 mps 743 mmHg 64%
    03:00 +19°C° 0 mm 2 mps 743 mmHg 66%
    04:00 +19°C° 0 mm 2 mps 742 mmHg 67%
    05:00 +19°C° 0 mm 2 mps 743 mmHg 69%
    06:00 +19°C° 0 mm 2 mps 743 mmHg 71%
    07:00 +19°C° 0 mm 2 mps 743 mmHg 73%
    08:00 +19°C° 0.1 mm 2 mps 743 mmHg 73%
    09:00 +19°C° 0.1 mm 2 mps 743 mmHg 72%
    10:00 +19°C° 0.1 mm 3 mps 743 mmHg 72%
    11:00 +19°C° 0 mm 3 mps 743 mmHg 69%
    12:00 +20°C° 0 mm 4 mps 742 mmHg 65%
    13:00 +20°C° 0 mm 4 mps 742 mmHg 62%
    14:00 +21°C° 0 mm 4 mps 742 mmHg 62%
    15:00 +21°C° 0 mm 5 mps 742 mmHg 61%
    16:00 +22°C° 0 mm 5 mps 741 mmHg 60%
    17:00 +21°C° 0.1 mm 5 mps 741 mmHg 62%
    18:00 +20°C° 0.1 mm 5 mps 742 mmHg 64%
    19:00 +19°C° 0.1 mm 5 mps 742 mmHg 66%
    20:00 +17°C° 0 mm 5 mps 742 mmHg 65%
    21:00 +16°C° 0 mm 5 mps 743 mmHg 63%
    22:00 +15°C° 0 mm 5 mps 743 mmHg 62%
    23:00 +14°C° 0 mm 5 mps 744 mmHg 63%

    Tomorrow, 18 September, Wednesday

    Time Temperature Precipitation Wind Pressure Humidity
    00:00 +13°C° 0 mm 5 mps 744 mmHg 63%
    01:00 +13°C° 0 mm 5 mps 745 mmHg 64%
    02:00 +12°C° 0 mm 5 mps 745 mmHg 62%
    03:00 +10°C° 0 mm 6 mps 745 mmHg 61%
    04:00 +10°C° 0 mm 6 mps 745 mmHg 59%
    05:00 +10°C° 0 mm 6 mps 746 mmHg 59%
    06:00 +9°C° 0 mm 6 mps 747 mmHg 59%
    07:00 +9°C° 0 mm 6 mps 747 mmHg 58%
    08:00 +10°C° 0 mm 6 mps 748 mmHg 53%
    09:00 +13°C° 0 mm 6 mps 748 mmHg 48%
    10:00 +14°C° 0 mm 6 mps 748 mmHg 43%
    11:00 +15°C° 0 mm 5 mps 748 mmHg 38%
    12:00 +16°C° 0 mm 5 mps 748 mmHg 34%
    13:00 +18°C° 0 mm 4 mps 748 mmHg 30%
    14:00 +18°C° 0 mm 4 mps 748 mmHg 29%
    15:00 +18°C° 0 mm 3 mps 747 mmHg 29%
    16:00 +18°C° 0 mm 3 mps 747 mmHg 29%
    17:00 +16°C° 0 mm 3 mps 747 mmHg 35%
    18:00 +15°C° 0 mm 2 mps 748 mmHg 41%
    19:00 +13°C° 0 mm 1 mps 748 mmHg 48%
    20:00 +13°C° 0 mm 1 mps 748 mmHg 51%
    21:00 +12°C° 0 mm 1 mps 749 mmHg 54%
    22:00 +11°C° 0 mm 1 mps 749 mmHg 57%
    23:00 +11°C° 0 mm 1 mps 749 mmHg 60%

    Day after tomorrow, 19 September, Thursday

    Time Temperature Precipitation Wind Pressure Humidity
    00:00 +10°C° 0 mm 1 mps 749 mmHg 63%
    01:00 +10°C° 0 mm 1 mps 749 mmHg 66%
    02:00 +9°C° 0 mm 1 mps 749 mmHg 68%
    03:00 +9°C° 0 mm 1 mps 749 mmHg 69%
    04:00 +8°C° 0 mm 2 mps 749 mmHg 71%
    05:00 +8°C° 0 mm 2 mps 749 mmHg 69%
    06:00 +9°C° 0 mm 2 mps 750 mmHg 68%
    07:00 +9°C° 0 mm 2 mps 750 mmHg 67%
    08:00 +10°C° 0 mm 2 mps 750 mmHg 60%
    09:00 +12°C° 0 mm 3 mps 750 mmHg 54%
    10:00 +13°C° 0 mm 3 mps 750 mmHg 48%
    11:00 +14°C° 0 mm 4 mps 750 mmHg 45%
    12:00 +15°C° 0 mm 4 mps 750 mmHg 43%
    13:00 +15°C° 0 mm 4 mps 750 mmHg 41%
    14:00 +15°C° 0 mm 4 mps 750 mmHg 41%
    15:00 +15°C° 0 mm 4 mps 750 mmHg 40%
    16:00 +15°C° 0 mm 4 mps 750 mmHg 40%
    17:00 +13°C° 0 mm 4 mps 750 mmHg 45%
    18:00 +12°C° 0 mm 3 mps 751 mmHg 51%
    19:00 +10°C° 0 mm 3 mps 751 mmHg 56%
    20:00 +10°C° 0 mm 2 mps 751 mmHg 59%
    21:00 +9°C° 0 mm 2 mps 752 mmHg 61%
    22:00 +9°C° 0 mm 2 mps 752 mmHg 64%
    23:00 +8°C° 0 mm 2 mps 752 mmHg 66%

    20 September, Friday

    Time Temperature Precipitation Wind Pressure Humidity
    00:00 +8°C° 0 mm 2 mps 752 mmHg 67%
    01:00 +7°C° 0 mm 2 mps 752 mmHg 69%
    02:00 +7°C° 0 mm 2 mps 752 mmHg 70%
    03:00 +7°C° 0 mm 2 mps 752 mmHg 71%
    04:00 +7°C° 0 mm 2 mps 752 mmHg 71%
    05:00 +7°C° 0 mm 2 mps 752 mmHg 70%
    06:00 +8°C° 0 mm 2 mps 751 mmHg 68%
    07:00 +8°C° 0 mm 2 mps 751 mmHg 66%
    08:00 +10°C° 0 mm 2 mps 752 mmHg 60%
    09:00 +12°C° 0 mm 2 mps 752 mmHg 54%
    10:00 +14°C° 0 mm 2 mps 752 mmHg 48%
    11:00 +15°C° 0 mm 2 mps 752 mmHg 43%
    12:00 +16°C° 0 mm 2 mps 751 mmHg 39%
    13:00 +17°C° 0 mm 2 mps 751 mmHg 34%
    14:00 +17°C° 0 mm 2 mps 750 mmHg 34%
    15:00 +17°C° 0 mm 2 mps 750 mmHg 34%
    16:00 +17°C° 0 mm 2 mps 750 mmHg 34%
    17:00 +16°C° 0 mm 1 mps 750 mmHg 39%
    18:00 +14°C° 0 mm 1 mps 751 mmHg 45%
    19:00 +13°C° 0 mm 1 mps 751 mmHg 50%
    20:00 +12°C° 0 mm 1 mps 751 mmHg 53%
    21:00 +11°C° 0 mm 1 mps 751 mmHg 55%
    22:00 +11°C° 0 mm 1 mps 752 mmHg 57%
    23:00 +9°C° 0 mm 0 mps 752 mmHg 59%

    21 September, Saturday

    Time Temperature Precipitation Wind Pressure Humidity
    00:00 +9°C° 0 mm 0 mps 752 mmHg 62%
    01:00 +9°C° 0 mm 0 mps 752 mmHg 64%
    02:00 +9°C° 0 mm 1 mps 752 mmHg 66%
    03:00 +9°C° 0 mm 1 mps 752 mmHg 68%
    04:00 +9°C° 0 mm 1 mps 752 mmHg 69%
    05:00 +9°C° 0 mm 1 mps 752 mmHg 69%
    06:00 +10°C° 0 mm 1 mps 751 mmHg 68%
    07:00 +9°C° 0 mm 2 mps 751 mmHg 67%
    08:00 +12°C° 0 mm 2 mps 751 mmHg 60%
    09:00 +13°C° 0 mm 3 mps 751 mmHg 53%
    10:00 +15°C° 0 mm 4 mps 752 mmHg 46%
    11:00 +17°C° 0 mm 4 mps 751 mmHg 43%
    12:00 +18°C° 0 mm 4 mps 751 mmHg 39%
    13:00 +19°C° 0 mm 5 mps 750 mmHg 36%
    14:00 +20°C° 0 mm 5 mps 750 mmHg 35%
    15:00 +20°C° 0 mm 5 mps 750 mmHg 35%
    16:00 +20°C° 0 mm 5 mps 750 mmHg 35%
    17:00 +18°C° 0 mm 4 mps 750 mmHg 39%
    18:00 +17°C° 0 mm 4 mps 750 mmHg 43%
    19:00 +14°C° 0 mm 4 mps 750 mmHg 46%
    20:00 +14°C° 0 mm 4 mps 750 mmHg 48%
    21:00 +13°C° 0 mm 4 mps 750 mmHg 49%
    22:00 +13°C° 0 mm 4 mps 750 mmHg 51%
    23:00 +13°C° 0 mm 4 mps 750 mmHg 52%

    22 September, Sunday

    Time Temperature Precipitation Wind Pressure Humidity
    00:00 +12°C° 0 mm 4 mps 750 mmHg 53%
    01:00 +12°C° 0 mm 4 mps 750 mmHg 55%
    02:00 +12°C° 0 mm 5 mps 750 mmHg 55%
    03:00 +10°C° 0 mm 5 mps 750 mmHg 56%
    04:00 +10°C° 0 mm 5 mps 750 mmHg 56%
    05:00 +10°C° 0 mm 5 mps 750 mmHg 55%
    06:00 +12°C° 0 mm 5 mps 750 mmHg 54%
    07:00 +12°C° 0 mm 5 mps 750 mmHg 52%
    08:00 +14°C° 0 mm 6 mps 750 mmHg 46%
    09:00 +16°C° 0 mm 7 mps 749 mmHg 40%
    10:00 +18°C° 0 mm 8 mps 749 mmHg 35%
    11:00 +20°C° 0 mm 8 mps 749 mmHg 33%
    12:00 +22°C° 0 mm 8 mps 748 mmHg 31%
    13:00 +23°C° 0 mm 8 mps 748 mmHg 29%
    14:00 +23°C° 0 mm 7 mps 748 mmHg 30%
    15:00 +22°C° 0 mm 7 mps 747 mmHg 31%
    16:00 +22°C° 0 mm 7 mps 747 mmHg 32%
    17:00 +21°C° 0 mm 6 mps 747 mmHg 36%
    18:00 +19°C° 0 mm 5 mps 747 mmHg 40%
    19:00 +17°C° 0 mm 5 mps 747 mmHg 44%
    20:00 +17°C° 0 mm 4 mps 747 mmHg 47%
    21:00 +15°C° 0 mm 4 mps 747 mmHg 49%
    22:00 +14°C° 0 mm 4 mps 747 mmHg 52%
    23:00 +14°C° 0 mm 3 mps 747 mmHg 54%
    Show more